Year,Month,Day,Hour,Minute,Value (Times are PST for temperature in C)
2017,04,02,00,00,8.00
2017,04,02,00,01,8.00
2017,04,02,00,02,8.00
2017,04,02,00,03,8.00
2017,04,02,00,04,8.00
2017,04,02,00,05,8.00
2017,04,02,00,06,8.00
2017,04,02,00,07,8.00
2017,04,02,00,08,8.00
2017,04,02,00,09,8.00
2017,04,02,00,10,8.00
2017,04,02,00,11,7.90
2017,04,02,00,12,7.90
2017,04,02,00,13,7.90
2017,04,02,00,14,7.90
2017,04,02,00,15,7.90
2017,04,02,00,16,7.90
2017,04,02,00,17,7.90
2017,04,02,00,19,7.90
2017,04,02,00,21,7.90
2017,04,02,00,22,7.90
2017,04,02,00,23,7.90
2017,04,02,00,24,7.90
2017,04,02,00,26,7.90
2017,04,02,00,27,8.00
2017,04,02,00,28,8.00
2017,04,02,00,29,8.00
2017,04,02,00,31,8.00
2017,04,02,00,32,7.90
2017,04,02,00,33,7.90
2017,04,02,00,34,7.90
2017,04,02,00,36,7.90
2017,04,02,00,37,7.90
2017,04,02,00,38,7.90
2017,04,02,00,39,7.90
2017,04,02,00,41,7.90
2017,04,02,00,42,7.90
2017,04,02,00,43,7.90
2017,04,02,00,44,7.90
2017,04,02,00,46,7.90
2017,04,02,00,47,7.90
2017,04,02,00,48,7.90
2017,04,02,00,49,7.90
2017,04,02,00,51,7.80
2017,04,02,00,52,7.80
2017,04,02,00,53,7.80
2017,04,02,00,54,7.80
2017,04,02,00,56,7.80
2017,04,02,00,57,7.80
2017,04,02,00,58,7.80
2017,04,02,00,59,7.80
2017,04,02,01,01,7.80
2017,04,02,01,02,7.80
2017,04,02,01,03,7.80
2017,04,02,01,04,7.80
2017,04,02,01,06,7.80
2017,04,02,01,07,7.80
2017,04,02,01,08,7.80
2017,04,02,01,09,7.80
2017,04,02,01,11,7.70
2017,04,02,01,12,7.70
2017,04,02,01,13,7.70
2017,04,02,01,14,7.70
2017,04,02,01,16,7.70
2017,04,02,01,17,7.70
2017,04,02,01,18,7.70
2017,04,02,01,19,7.70
2017,04,02,01,21,7.70
2017,04,02,01,22,7.70
2017,04,02,01,23,7.70
2017,04,02,01,24,7.70
2017,04,02,01,26,7.60
2017,04,02,01,27,7.60
2017,04,02,01,28,7.60
2017,04,02,01,29,7.60
2017,04,02,01,31,7.60
2017,04,02,01,32,7.60
2017,04,02,01,33,7.60
2017,04,02,01,34,7.60
2017,04,02,01,36,7.70
2017,04,02,01,37,7.70
2017,04,02,01,38,7.70
2017,04,02,01,39,7.70
2017,04,02,01,40,7.70
2017,04,02,01,41,7.70
2017,04,02,01,42,7.70
2017,04,02,01,43,7.70
2017,04,02,01,44,7.70
2017,04,02,01,45,7.70
2017,04,02,01,46,7.70
2017,04,02,01,47,7.70
2017,04,02,01,48,7.70
2017,04,02,01,49,7.70
2017,04,02,01,50,7.60
2017,04,02,01,51,7.60
2017,04,02,01,52,7.60
2017,04,02,01,53,7.60
2017,04,02,01,54,7.60
2017,04,02,01,55,7.60
2017,04,02,01,56,7.60
2017,04,02,01,57,7.60
2017,04,02,01,58,7.60
2017,04,02,01,59,7.60
2017,04,02,02,00,7.60
2017,04,02,02,01,7.60
2017,04,02,02,02,7.60
2017,04,02,02,03,7.50
2017,04,02,02,04,7.50
2017,04,02,02,05,7.50
2017,04,02,02,06,7.50
2017,04,02,02,07,7.50
2017,04,02,02,08,7.50
2017,04,02,02,09,7.50
2017,04,02,02,10,7.50
2017,04,02,02,11,7.50
2017,04,02,02,12,7.40
2017,04,02,02,13,7.40
2017,04,02,02,14,7.40
2017,04,02,02,15,7.40
2017,04,02,02,16,7.40
2017,04,02,02,17,7.40
2017,04,02,02,18,7.40
2017,04,02,02,19,7.40
2017,04,02,02,20,7.40
2017,04,02,02,21,7.40
2017,04,02,02,22,7.40
2017,04,02,02,23,7.40
2017,04,02,02,24,7.40
2017,04,02,02,25,7.40
2017,04,02,02,26,7.40
2017,04,02,02,27,7.40
2017,04,02,02,28,7.40
2017,04,02,02,29,7.40
2017,04,02,02,30,7.40
2017,04,02,02,31,7.40
2017,04,02,02,32,7.40
2017,04,02,02,33,7.40
2017,04,02,02,34,7.40
2017,04,02,02,35,7.40
2017,04,02,02,36,7.40
2017,04,02,02,37,7.40
2017,04,02,02,38,7.30
2017,04,02,02,39,7.30
2017,04,02,02,40,7.30
2017,04,02,02,41,7.30
2017,04,02,02,42,7.30
2017,04,02,02,43,7.30
2017,04,02,02,44,7.30
2017,04,02,02,45,7.30
2017,04,02,02,46,7.30
2017,04,02,02,47,7.30
2017,04,02,02,48,7.30
2017,04,02,02,49,7.30
2017,04,02,02,50,7.30
2017,04,02,02,51,7.30
2017,04,02,02,52,7.20
2017,04,02,02,53,7.20
2017,04,02,02,54,7.20
2017,04,02,02,55,7.10
2017,04,02,02,56,7.10
2017,04,02,02,58,7.10
2017,04,02,02,59,7.10
2017,04,02,03,01,7.00
2017,04,02,03,02,7.00
2017,04,02,03,03,7.00
2017,04,02,03,04,7.00
2017,04,02,03,06,7.00
2017,04,02,03,07,7.00
2017,04,02,03,08,7.00
2017,04,02,03,09,7.00
2017,04,02,03,11,7.00
2017,04,02,03,12,7.00
2017,04,02,03,13,7.00
2017,04,02,03,14,7.00
2017,04,02,03,16,7.00
2017,04,02,03,17,7.00
2017,04,02,03,18,6.90
2017,04,02,03,19,6.90
2017,04,02,03,21,6.90
2017,04,02,03,22,6.90
2017,04,02,03,23,6.90
2017,04,02,03,24,6.80
2017,04,02,03,26,6.80
2017,04,02,03,27,6.90
2017,04,02,03,28,6.90
2017,04,02,03,29,6.90
2017,04,02,03,31,6.90
2017,04,02,03,32,6.90
2017,04,02,03,33,6.90
2017,04,02,03,34,7.00
2017,04,02,03,36,7.00
2017,04,02,03,37,7.00
2017,04,02,03,38,7.00
2017,04,02,03,39,7.10
2017,04,02,03,41,7.10
2017,04,02,03,42,7.10
2017,04,02,03,43,7.10
2017,04,02,03,44,7.10
2017,04,02,03,46,7.10
2017,04,02,03,47,7.10
2017,04,02,03,48,7.00
2017,04,02,03,49,7.00
2017,04,02,03,51,7.00
2017,04,02,03,52,7.00
2017,04,02,03,53,7.00
2017,04,02,03,54,7.00
2017,04,02,03,56,7.00
2017,04,02,03,57,6.90
2017,04,02,03,58,6.90
2017,04,02,03,59,6.90
2017,04,02,04,01,6.90
2017,04,02,04,02,6.80
2017,04,02,04,03,6.80
2017,04,02,04,04,6.80
2017,04,02,04,06,6.80
2017,04,02,04,07,6.80
2017,04,02,04,08,6.80
2017,04,02,04,09,6.80
2017,04,02,04,11,6.80
2017,04,02,04,12,6.80
2017,04,02,04,13,6.80
2017,04,02,04,14,6.80
2017,04,02,04,16,6.80
2017,04,02,04,17,6.80
2017,04,02,04,18,6.80
2017,04,02,04,19,6.80
2017,04,02,04,21,6.70
2017,04,02,04,22,6.70
2017,04,02,04,23,6.70
2017,04,02,04,24,6.70
2017,04,02,04,25,6.70
2017,04,02,04,26,6.70
2017,04,02,04,27,6.70
2017,04,02,04,28,6.70
2017,04,02,04,29,6.70
2017,04,02,04,30,6.70
2017,04,02,04,31,6.70
2017,04,02,04,32,6.70
2017,04,02,04,33,6.70
2017,04,02,04,34,6.70
2017,04,02,04,35,6.70
2017,04,02,04,36,6.70
2017,04,02,04,37,6.70
2017,04,02,04,38,6.70
2017,04,02,04,39,6.70
2017,04,02,04,40,6.70
2017,04,02,04,41,6.70
2017,04,02,04,42,6.70
2017,04,02,04,43,6.70
2017,04,02,04,44,6.70
2017,04,02,04,45,6.70
2017,04,02,04,46,6.70
2017,04,02,04,47,6.70
2017,04,02,04,48,6.70
2017,04,02,04,49,6.70
2017,04,02,04,50,6.70
2017,04,02,04,51,6.70
2017,04,02,04,52,6.60
2017,04,02,04,53,6.60
2017,04,02,04,54,6.60
2017,04,02,04,55,6.60
2017,04,02,04,56,6.60
2017,04,02,04,57,6.60
2017,04,02,04,58,6.60
2017,04,02,04,59,6.60
2017,04,02,05,00,6.60
2017,04,02,05,01,6.60
2017,04,02,05,02,6.60
2017,04,02,05,03,6.60
2017,04,02,05,04,6.60
2017,04,02,05,05,6.60
2017,04,02,05,06,6.40
2017,04,02,05,07,6.40
2017,04,02,05,08,6.40
2017,04,02,05,09,6.40
2017,04,02,05,10,6.40
2017,04,02,05,11,6.40
2017,04,02,05,12,6.40
2017,04,02,05,13,6.40
2017,04,02,05,14,6.40
2017,04,02,05,15,6.40
2017,04,02,05,16,6.40
2017,04,02,05,17,6.40
2017,04,02,05,18,6.40
2017,04,02,05,19,6.40
2017,04,02,05,20,6.40
2017,04,02,05,21,6.40
2017,04,02,05,22,6.30
2017,04,02,05,23,6.30
2017,04,02,05,24,6.30
2017,04,02,05,25,6.30
2017,04,02,05,26,6.30
2017,04,02,05,27,6.30
2017,04,02,05,28,6.30
2017,04,02,05,29,6.30
2017,04,02,05,30,6.30
2017,04,02,05,31,6.30
2017,04,02,05,32,6.20
2017,04,02,05,33,6.20
2017,04,02,05,34,6.20
2017,04,02,05,35,6.20
2017,04,02,05,37,6.20
2017,04,02,05,38,6.20
2017,04,02,05,39,6.20
2017,04,02,05,41,6.20
2017,04,02,05,42,6.20
2017,04,02,05,43,6.20
2017,04,02,05,44,6.20
2017,04,02,05,46,6.20
2017,04,02,05,47,6.20
2017,04,02,05,48,6.20
2017,04,02,05,49,6.20
2017,04,02,05,51,6.20
2017,04,02,05,52,6.20
2017,04,02,05,53,6.20
2017,04,02,05,54,6.20
2017,04,02,05,56,6.20
2017,04,02,05,57,6.20
2017,04,02,05,58,6.20
2017,04,02,05,59,6.20
2017,04,02,06,01,6.20
2017,04,02,06,02,6.20
2017,04,02,06,03,6.20
2017,04,02,06,04,6.20
2017,04,02,06,06,6.20
2017,04,02,06,07,6.20
2017,04,02,06,08,6.20
2017,04,02,06,09,6.20
2017,04,02,06,11,6.20
2017,04,02,06,12,6.10
2017,04,02,06,13,6.10
2017,04,02,06,14,6.10
2017,04,02,06,16,6.10
2017,04,02,06,17,6.10
2017,04,02,06,18,6.00
2017,04,02,06,19,6.00
2017,04,02,06,21,6.00
2017,04,02,06,22,6.00
2017,04,02,06,23,5.90
2017,04,02,06,24,5.90
2017,04,02,06,26,5.90
2017,04,02,06,27,5.90
2017,04,02,06,28,5.80
2017,04,02,06,29,5.80
2017,04,02,06,31,5.80
2017,04,02,06,32,5.80
2017,04,02,06,33,5.80
2017,04,02,06,34,5.80
2017,04,02,06,36,5.80
2017,04,02,06,37,5.70
2017,04,02,06,38,5.70
2017,04,02,06,39,5.70
2017,04,02,06,41,5.70
2017,04,02,06,42,5.70
2017,04,02,06,43,5.70
2017,04,02,06,44,5.70
2017,04,02,06,46,5.70
2017,04,02,06,47,5.80
2017,04,02,06,48,5.80
2017,04,02,06,49,5.80
2017,04,02,06,51,5.80
2017,04,02,06,52,5.90
2017,04,02,06,53,5.90
2017,04,02,06,54,5.90
2017,04,02,06,56,5.90
2017,04,02,06,57,5.90
2017,04,02,06,58,5.90
2017,04,02,06,59,6.00
2017,04,02,07,00,6.00
2017,04,02,07,01,6.00
2017,04,02,07,02,6.00
2017,04,02,07,03,6.00
2017,04,02,07,04,6.00
2017,04,02,07,06,6.00
2017,04,02,07,07,6.00
2017,04,02,07,08,6.10
2017,04,02,07,09,6.10
2017,04,02,07,10,6.10
2017,04,02,07,11,6.10
2017,04,02,07,12,6.10
2017,04,02,07,13,6.20
2017,04,02,07,14,6.20
2017,04,02,07,15,6.20
2017,04,02,07,16,6.20
2017,04,02,07,17,6.20
2017,04,02,07,18,6.20
2017,04,02,07,19,6.20
2017,04,02,07,20,6.20
2017,04,02,07,21,6.20
2017,04,02,07,22,6.30
2017,04,02,07,23,6.30
2017,04,02,07,24,6.40
2017,04,02,07,25,6.40
2017,04,02,07,26,6.40
2017,04,02,07,27,6.60
2017,04,02,07,28,6.60
2017,04,02,07,29,6.60
2017,04,02,07,30,6.70
2017,04,02,07,31,6.80
2017,04,02,07,32,6.80
2017,04,02,07,33,6.90
2017,04,02,07,34,7.00
2017,04,02,07,35,7.10
2017,04,02,07,36,7.20
2017,04,02,07,37,7.20
2017,04,02,07,38,7.20
2017,04,02,07,39,7.20
2017,04,02,07,40,7.20
2017,04,02,07,41,7.20
2017,04,02,07,42,7.20
2017,04,02,07,43,7.30
2017,04,02,07,44,7.30
2017,04,02,07,45,7.30
2017,04,02,07,46,7.30
2017,04,02,07,47,7.40
2017,04,02,07,48,7.50
2017,04,02,07,49,7.50
2017,04,02,07,50,7.50
2017,04,02,07,51,7.60
2017,04,02,07,52,7.70
2017,04,02,07,53,7.80
2017,04,02,07,54,7.80
2017,04,02,07,55,7.90
2017,04,02,07,56,8.00
2017,04,02,07,57,8.10
2017,04,02,07,58,8.10
2017,04,02,07,59,8.20
2017,04,02,08,00,8.20
2017,04,02,08,01,8.20
2017,04,02,08,02,8.30
2017,04,02,08,03,8.20
2017,04,02,08,04,8.20
2017,04,02,08,05,8.30
2017,04,02,08,06,8.20
2017,04,02,08,07,8.20
2017,04,02,08,08,8.20
2017,04,02,08,09,8.20
2017,04,02,08,10,8.20
2017,04,02,08,11,8.20
2017,04,02,08,12,8.20
2017,04,02,08,13,8.20
2017,04,02,08,14,8.20
2017,04,02,08,15,8.20
2017,04,02,08,16,8.20
2017,04,02,08,17,8.30
2017,04,02,08,18,8.30
2017,04,02,08,19,8.40
2017,04,02,08,21,8.50
2017,04,02,08,22,8.60
2017,04,02,08,23,8.60
2017,04,02,08,24,8.70
2017,04,02,08,26,8.70
2017,04,02,08,27,8.70
2017,04,02,08,28,8.70
2017,04,02,08,29,8.70
2017,04,02,08,31,8.70
2017,04,02,08,32,8.70
2017,04,02,08,33,8.70
2017,04,02,08,34,8.70
2017,04,02,08,36,8.80
2017,04,02,08,37,8.80
2017,04,02,08,38,8.90
2017,04,02,08,39,8.90
2017,04,02,08,41,9.10
2017,04,02,08,42,9.20
2017,04,02,08,43,9.20
2017,04,02,08,44,9.20
2017,04,02,08,46,9.20
2017,04,02,08,47,9.20
2017,04,02,08,48,9.20
2017,04,02,08,49,9.20
2017,04,02,08,51,9.20
2017,04,02,08,52,9.30
2017,04,02,08,53,9.30
2017,04,02,08,54,9.30
2017,04,02,08,56,9.40
2017,04,02,08,57,9.50
2017,04,02,08,58,9.50
2017,04,02,08,59,9.60
2017,04,02,09,01,9.70
2017,04,02,09,02,9.80
2017,04,02,09,03,9.90
2017,04,02,09,04,9.90
2017,04,02,09,06,10.10
2017,04,02,09,07,10.20
2017,04,02,09,08,10.20
2017,04,02,09,09,10.30
2017,04,02,09,11,10.40
2017,04,02,09,12,10.40
2017,04,02,09,13,10.40
2017,04,02,09,14,10.60
2017,04,02,09,16,10.60
2017,04,02,09,17,10.60
2017,04,02,09,18,10.60
2017,04,02,09,19,10.60
2017,04,02,09,21,10.70
2017,04,02,09,22,10.70
2017,04,02,09,23,10.70
2017,04,02,09,24,10.70
2017,04,02,09,26,10.70
2017,04,02,09,27,10.70
2017,04,02,09,28,10.70
2017,04,02,09,29,10.70
2017,04,02,09,31,10.80
2017,04,02,09,32,10.80
2017,04,02,09,33,10.90
2017,04,02,09,34,10.90
2017,04,02,09,36,10.90
2017,04,02,09,37,10.90
2017,04,02,09,38,10.90
2017,04,02,09,39,11.10
2017,04,02,09,40,11.10
2017,04,02,09,41,11.20
2017,04,02,09,42,11.20
2017,04,02,09,43,11.30
2017,04,02,09,44,11.40
2017,04,02,09,45,11.40
2017,04,02,09,46,11.60
2017,04,02,09,47,11.60
2017,04,02,09,48,11.70
2017,04,02,09,49,11.80
2017,04,02,09,50,11.90
2017,04,02,09,51,12.10
2017,04,02,09,52,12.20
2017,04,02,09,53,12.30
2017,04,02,09,54,12.40
2017,04,02,09,55,12.50
2017,04,02,09,56,12.60
2017,04,02,09,57,12.70
2017,04,02,09,58,12.80
2017,04,02,09,59,12.80
2017,04,02,10,00,12.90
2017,04,02,10,01,12.90
2017,04,02,10,02,12.80
2017,04,02,10,03,12.80
2017,04,02,10,04,12.70
2017,04,02,10,05,12.60
2017,04,02,10,06,12.60
2017,04,02,10,07,12.60
2017,04,02,10,08,12.60
2017,04,02,10,09,12.70
2017,04,02,10,10,12.70
2017,04,02,10,11,12.80
2017,04,02,10,12,12.80
2017,04,02,10,13,12.90
2017,04,02,10,14,13.00
2017,04,02,10,15,13.10
2017,04,02,10,16,13.20
2017,04,02,10,17,13.20
2017,04,02,10,18,13.30
2017,04,02,10,19,13.30
2017,04,02,10,20,13.30
2017,04,02,10,21,13.40
2017,04,02,10,22,13.40
2017,04,02,10,23,13.50
2017,04,02,10,24,13.50
2017,04,02,10,25,13.50
2017,04,02,10,26,13.40
2017,04,02,10,27,13.30
2017,04,02,10,28,13.30
2017,04,02,10,29,13.20
2017,04,02,10,30,13.10
2017,04,02,10,31,13.00
2017,04,02,10,32,12.80
2017,04,02,10,33,12.70
2017,04,02,10,34,12.50
2017,04,02,10,35,12.30
2017,04,02,10,36,12.30
2017,04,02,10,37,12.10
2017,04,02,10,38,12.00
2017,04,02,10,39,11.90
2017,04,02,10,40,11.80
2017,04,02,10,41,11.80
2017,04,02,10,42,11.80
2017,04,02,10,43,11.70
2017,04,02,10,44,11.60
2017,04,02,10,45,11.60
2017,04,02,10,46,11.60
2017,04,02,10,47,11.60
2017,04,02,10,48,11.40
2017,04,02,10,49,11.40
2017,04,02,10,50,11.40
2017,04,02,10,51,11.30
2017,04,02,10,52,11.20
2017,04,02,10,53,11.20
2017,04,02,10,54,11.10
2017,04,02,10,55,11.10
2017,04,02,10,56,11.10
2017,04,02,10,57,10.90
2017,04,02,10,58,10.90
2017,04,02,10,59,10.90
2017,04,02,11,00,10.90
2017,04,02,11,02,10.80
2017,04,02,11,03,10.80
2017,04,02,11,04,10.80
2017,04,02,11,06,10.80
2017,04,02,11,07,10.80
2017,04,02,11,08,10.90
2017,04,02,11,09,10.90
2017,04,02,11,11,11.10
2017,04,02,11,12,11.20
2017,04,02,11,13,11.30
2017,04,02,11,14,11.40
2017,04,02,11,16,11.40
2017,04,02,11,17,11.40
2017,04,02,11,18,11.60
2017,04,02,11,19,11.60
2017,04,02,11,21,11.60
2017,04,02,11,22,11.40
2017,04,02,11,23,11.40
2017,04,02,11,24,11.40
2017,04,02,11,26,11.40
2017,04,02,11,27,11.30
2017,04,02,11,28,11.30
2017,04,02,11,29,11.20
2017,04,02,11,31,11.10
2017,04,02,11,32,10.90
2017,04,02,11,33,10.90
2017,04,02,11,34,10.90
2017,04,02,11,36,10.70
2017,04,02,11,37,10.60
2017,04,02,11,38,10.60
2017,04,02,11,39,10.60
2017,04,02,11,41,10.60
2017,04,02,11,42,10.60
2017,04,02,11,43,10.60
2017,04,02,11,44,10.40
2017,04,02,11,46,10.40
2017,04,02,11,47,10.40
2017,04,02,11,48,10.40
2017,04,02,11,49,10.40
2017,04,02,11,51,10.60
2017,04,02,11,52,10.60
2017,04,02,11,53,10.60
2017,04,02,11,54,10.60
2017,04,02,11,56,10.60
2017,04,02,11,57,10.60
2017,04,02,11,58,10.60
2017,04,02,11,59,10.70
2017,04,02,12,01,10.70
2017,04,02,12,02,10.70
2017,04,02,12,03,10.70
2017,04,02,12,04,10.70
2017,04,02,12,06,10.70
2017,04,02,12,07,10.60
2017,04,02,12,08,10.60
2017,04,02,12,09,10.60
2017,04,02,12,11,10.70
2017,04,02,12,12,10.70
2017,04,02,12,13,10.70
2017,04,02,12,14,10.70
2017,04,02,12,15,10.80
2017,04,02,12,16,10.80
2017,04,02,12,17,10.80
2017,04,02,12,18,10.80
2017,04,02,12,19,10.80
2017,04,02,12,20,10.80
2017,04,02,12,21,10.80
2017,04,02,12,22,10.80
2017,04,02,12,23,10.80
2017,04,02,12,24,10.80
2017,04,02,12,25,10.90
2017,04,02,12,26,10.90
2017,04,02,12,27,10.90
2017,04,02,12,28,10.90
2017,04,02,12,29,11.10
2017,04,02,12,30,11.20
2017,04,02,12,31,11.30
2017,04,02,12,32,11.40
2017,04,02,12,33,11.60
2017,04,02,12,34,11.60
2017,04,02,12,35,11.70
2017,04,02,12,36,11.80
2017,04,02,12,37,11.90
2017,04,02,12,38,12.10
2017,04,02,12,39,12.30
2017,04,02,12,40,12.30
2017,04,02,12,41,12.40
2017,04,02,12,42,12.50
2017,04,02,12,43,12.60
2017,04,02,12,44,12.70
2017,04,02,12,45,12.70
2017,04,02,12,46,12.80
2017,04,02,12,47,12.70
2017,04,02,12,48,12.70
2017,04,02,12,49,12.70
2017,04,02,12,50,12.80
2017,04,02,12,51,12.80
2017,04,02,12,52,12.80
2017,04,02,12,53,12.90
2017,04,02,12,54,12.90
2017,04,02,12,55,12.90
2017,04,02,12,56,13.00
2017,04,02,12,57,13.10
2017,04,02,12,58,13.20
2017,04,02,12,59,13.30
2017,04,02,13,00,13.30
2017,04,02,13,01,13.40
2017,04,02,13,02,13.50
2017,04,02,13,03,13.60
2017,04,02,13,04,13.70
2017,04,02,13,05,13.70
2017,04,02,13,06,13.80
2017,04,02,13,07,13.90
2017,04,02,13,08,13.90
2017,04,02,13,09,13.90
2017,04,02,13,10,13.90
2017,04,02,13,11,13.90
2017,04,02,13,12,13.90
2017,04,02,13,13,13.80
2017,04,02,13,14,13.70
2017,04,02,13,15,13.60
2017,04,02,13,16,13.60
2017,04,02,13,17,13.50
2017,04,02,13,18,13.40
2017,04,02,13,19,13.30
2017,04,02,13,20,13.30
2017,04,02,13,21,13.30
2017,04,02,13,22,13.30
2017,04,02,13,23,13.30
2017,04,02,13,24,13.30
2017,04,02,13,25,13.20
2017,04,02,13,26,13.10
2017,04,02,13,27,13.10
2017,04,02,13,28,13.10
2017,04,02,13,29,13.00
2017,04,02,13,30,13.00
2017,04,02,13,31,12.90
2017,04,02,13,32,12.80
2017,04,02,13,33,12.80
2017,04,02,13,34,12.80
2017,04,02,13,36,12.80
2017,04,02,13,37,12.80
2017,04,02,13,38,12.70
2017,04,02,13,39,12.50
2017,04,02,13,41,12.30
2017,04,02,13,42,12.30
2017,04,02,13,43,12.30
2017,04,02,13,44,12.30
2017,04,02,13,46,12.20
2017,04,02,13,47,12.10
2017,04,02,13,48,12.10
2017,04,02,13,49,12.10
2017,04,02,13,51,12.10
2017,04,02,13,52,12.20
2017,04,02,13,53,12.30
2017,04,02,13,54,12.30
2017,04,02,13,56,12.40
2017,04,02,13,57,12.50
2017,04,02,13,58,12.60
2017,04,02,13,59,12.60
2017,04,02,14,01,12.60
2017,04,02,14,02,12.50
2017,04,02,14,03,12.40
2017,04,02,14,04,12.30
2017,04,02,14,06,12.30
2017,04,02,14,07,12.20
2017,04,02,14,08,12.20
2017,04,02,14,09,12.20
2017,04,02,14,11,12.00
2017,04,02,14,12,11.90
2017,04,02,14,13,11.90
2017,04,02,14,14,11.80
2017,04,02,14,16,11.80
2017,04,02,14,17,11.70
2017,04,02,14,18,11.70
2017,04,02,14,19,11.60
2017,04,02,14,21,11.60
2017,04,02,14,22,11.60
2017,04,02,14,23,11.40
2017,04,02,14,24,11.40
2017,04,02,14,26,11.40
2017,04,02,14,27,11.40
2017,04,02,14,28,11.40
2017,04,02,14,29,11.40
2017,04,02,14,31,11.40
2017,04,02,14,32,11.40
2017,04,02,14,33,11.40
2017,04,02,14,34,11.40
2017,04,02,14,36,11.40
2017,04,02,14,37,11.40
2017,04,02,14,38,11.40
2017,04,02,14,39,11.40
2017,04,02,14,41,11.40
2017,04,02,14,42,11.40
2017,04,02,14,43,11.40
2017,04,02,14,44,11.40
2017,04,02,14,46,11.40
2017,04,02,14,47,11.60
2017,04,02,14,48,11.60
2017,04,02,14,49,11.60
2017,04,02,14,50,11.70
2017,04,02,14,51,11.70
2017,04,02,14,52,11.80
2017,04,02,14,53,11.80
2017,04,02,14,54,11.80
2017,04,02,14,55,11.80
2017,04,02,14,56,11.80
2017,04,02,14,57,11.80
2017,04,02,14,58,11.80
2017,04,02,14,59,11.80
2017,04,02,15,00,11.80
2017,04,02,15,01,11.70
2017,04,02,15,02,11.70
2017,04,02,15,03,11.60
2017,04,02,15,04,11.60
2017,04,02,15,05,11.60
2017,04,02,15,06,11.60
2017,04,02,15,07,11.60
2017,04,02,15,08,11.40
2017,04,02,15,09,11.40
2017,04,02,15,10,11.40
2017,04,02,15,11,11.30
2017,04,02,15,12,11.30
2017,04,02,15,13,11.20
2017,04,02,15,14,11.20
2017,04,02,15,15,11.10
2017,04,02,15,16,11.10
2017,04,02,15,17,11.10
2017,04,02,15,18,11.10
2017,04,02,15,19,11.10
2017,04,02,15,20,11.10
2017,04,02,15,21,11.10
2017,04,02,15,22,11.10
2017,04,02,15,23,11.10
2017,04,02,15,24,11.10
2017,04,02,15,25,11.10
2017,04,02,15,26,11.10
2017,04,02,15,27,11.10
2017,04,02,15,28,11.10
2017,04,02,15,29,11.10
2017,04,02,15,30,11.10
2017,04,02,15,31,11.20
2017,04,02,15,32,11.20
2017,04,02,15,33,11.20
2017,04,02,15,34,11.20
2017,04,02,15,35,11.20
2017,04,02,15,36,11.20
2017,04,02,15,37,11.20
2017,04,02,15,38,11.10
2017,04,02,15,39,11.10
2017,04,02,15,40,11.10
2017,04,02,15,41,11.10
2017,04,02,15,42,11.10
2017,04,02,15,43,10.90
2017,04,02,15,44,10.90
2017,04,02,15,45,10.90
2017,04,02,15,46,10.90
2017,04,02,15,47,10.90
2017,04,02,15,48,10.90
2017,04,02,15,49,10.90
2017,04,02,15,50,10.90
2017,04,02,15,51,10.90
2017,04,02,15,52,10.90
2017,04,02,15,53,10.80
2017,04,02,15,54,10.80
2017,04,02,15,55,10.80
2017,04,02,15,56,10.80
2017,04,02,15,57,10.80
2017,04,02,15,58,10.80
2017,04,02,15,59,10.80
2017,04,02,16,00,10.80
2017,04,02,16,01,10.80
2017,04,02,16,02,10.80
2017,04,02,16,03,10.80
2017,04,02,16,04,10.80
2017,04,02,16,05,10.70
2017,04,02,16,06,10.60
2017,04,02,16,07,10.60
2017,04,02,16,08,10.60
2017,04,02,16,09,10.40
2017,04,02,16,10,10.30
2017,04,02,16,11,10.30
2017,04,02,16,12,10.20
2017,04,02,16,14,10.10
2017,04,02,16,16,9.90
2017,04,02,16,17,9.90
2017,04,02,16,18,10.10
2017,04,02,16,19,10.10
2017,04,02,16,21,10.20
2017,04,02,16,22,10.30
2017,04,02,16,23,10.40
2017,04,02,16,24,10.40
2017,04,02,16,26,10.60
2017,04,02,16,27,10.60
2017,04,02,16,28,10.60
2017,04,02,16,29,10.60
2017,04,02,16,31,10.70
2017,04,02,16,32,10.70
2017,04,02,16,33,10.70
2017,04,02,16,34,10.80
2017,04,02,16,36,10.80
2017,04,02,16,37,10.90
2017,04,02,16,38,10.90
2017,04,02,16,39,10.90
2017,04,02,16,41,10.90
2017,04,02,16,42,10.90
2017,04,02,16,43,10.90
2017,04,02,16,44,10.90
2017,04,02,16,46,10.90
2017,04,02,16,47,10.90
2017,04,02,16,48,10.90
2017,04,02,16,49,10.90
2017,04,02,16,51,10.90
2017,04,02,16,52,10.90
2017,04,02,16,53,10.90
2017,04,02,16,54,10.90
2017,04,02,16,56,10.90
2017,04,02,16,57,10.90
2017,04,02,16,58,10.90
2017,04,02,16,59,10.80
2017,04,02,17,01,10.80
2017,04,02,17,02,10.70
2017,04,02,17,03,10.70
2017,04,02,17,04,10.70
2017,04,02,17,06,10.70
2017,04,02,17,07,10.60
2017,04,02,17,08,10.60
2017,04,02,17,09,10.60
2017,04,02,17,11,10.60
2017,04,02,17,12,10.60
2017,04,02,17,13,10.60
2017,04,02,17,14,10.40
2017,04,02,17,16,10.40
2017,04,02,17,17,10.30
2017,04,02,17,18,10.20
2017,04,02,17,19,10.10
2017,04,02,17,21,9.90
2017,04,02,17,22,9.90
2017,04,02,17,23,9.90
2017,04,02,17,24,9.90
2017,04,02,17,26,9.90
2017,04,02,17,27,9.80
2017,04,02,17,28,9.80
2017,04,02,17,29,9.80
2017,04,02,17,31,9.70
2017,04,02,17,32,9.70
2017,04,02,17,33,9.70
2017,04,02,17,34,9.70
2017,04,02,17,36,9.70
2017,04,02,17,37,9.70
2017,04,02,17,38,9.70
2017,04,02,17,39,9.70
2017,04,02,17,40,9.70
2017,04,02,17,41,9.70
2017,04,02,17,42,9.70
2017,04,02,17,43,9.70
2017,04,02,17,44,9.70
2017,04,02,17,45,9.70
2017,04,02,17,46,9.70
2017,04,02,17,47,9.70
2017,04,02,17,48,9.70
2017,04,02,17,49,9.70
2017,04,02,17,50,9.70
2017,04,02,17,51,9.70
2017,04,02,17,52,9.70
2017,04,02,17,53,9.70
2017,04,02,17,54,9.70
2017,04,02,17,55,9.60
2017,04,02,17,56,9.60
2017,04,02,17,57,9.60
2017,04,02,17,58,9.60
2017,04,02,17,59,9.50
2017,04,02,18,00,9.50
2017,04,02,18,01,9.50
2017,04,02,18,02,9.50
2017,04,02,18,03,9.50
2017,04,02,18,04,9.50
2017,04,02,18,05,9.50
2017,04,02,18,06,9.50
2017,04,02,18,07,9.40
2017,04,02,18,08,9.40
2017,04,02,18,09,9.40
2017,04,02,18,10,9.40
2017,04,02,18,11,9.30
2017,04,02,18,12,9.30
2017,04,02,18,13,9.30
2017,04,02,18,14,9.30
2017,04,02,18,15,9.30
2017,04,02,18,16,9.20
2017,04,02,18,17,9.20
2017,04,02,18,18,9.20
2017,04,02,18,19,9.20
2017,04,02,18,20,9.20
2017,04,02,18,21,9.20
2017,04,02,18,22,9.20
2017,04,02,18,23,9.20
2017,04,02,18,24,9.20
2017,04,02,18,25,9.20
2017,04,02,18,26,9.20
2017,04,02,18,27,9.20
2017,04,02,18,28,9.20
2017,04,02,18,29,9.20
2017,04,02,18,30,9.20
2017,04,02,18,31,9.20
2017,04,02,18,32,9.10
2017,04,02,18,33,9.10
2017,04,02,18,34,9.00
2017,04,02,18,35,9.00
2017,04,02,18,36,9.00
2017,04,02,18,37,9.00
2017,04,02,18,38,8.90
2017,04,02,18,39,8.90
2017,04,02,18,40,8.90
2017,04,02,18,41,8.90
2017,04,02,18,42,8.80
2017,04,02,18,43,8.80
2017,04,02,18,44,8.80
2017,04,02,18,45,8.80
2017,04,02,18,46,8.80
2017,04,02,18,47,8.80
2017,04,02,18,48,8.90
2017,04,02,18,49,8.90
2017,04,02,18,50,8.90
2017,04,02,18,51,8.90
2017,04,02,18,53,8.90
2017,04,02,18,54,8.90
2017,04,02,18,56,8.90
2017,04,02,18,57,8.90
2017,04,02,18,58,8.80
2017,04,02,18,59,8.80
2017,04,02,19,01,8.70
2017,04,02,19,02,8.70
2017,04,02,19,03,8.70
2017,04,02,19,04,8.70
2017,04,02,19,06,8.70
2017,04,02,19,07,8.70
2017,04,02,19,08,8.70
2017,04,02,19,09,8.70
2017,04,02,19,11,8.70
2017,04,02,19,12,8.70
2017,04,02,19,13,8.70
2017,04,02,19,14,8.70
2017,04,02,19,16,8.70
2017,04,02,19,17,8.70
2017,04,02,19,18,8.70
2017,04,02,19,19,8.70
2017,04,02,19,21,8.70
2017,04,02,19,22,8.70
2017,04,02,19,23,8.70
2017,04,02,19,24,8.70
2017,04,02,19,26,8.70
2017,04,02,19,27,8.70
2017,04,02,19,28,8.70
2017,04,02,19,29,8.70
2017,04,02,19,31,8.70
2017,04,02,19,32,8.70
2017,04,02,19,33,8.70
2017,04,02,19,34,8.60
2017,04,02,19,36,8.60
2017,04,02,19,37,8.60
2017,04,02,19,38,8.60
2017,04,02,19,39,8.60
2017,04,02,19,41,8.60
2017,04,02,19,42,8.60
2017,04,02,19,43,8.50
2017,04,02,19,44,8.50
2017,04,02,19,46,8.50
2017,04,02,19,47,8.40
2017,04,02,19,48,8.40
2017,04,02,19,49,8.30
2017,04,02,19,51,8.20
2017,04,02,19,52,8.20
2017,04,02,19,53,8.20
2017,04,02,19,54,8.20
2017,04,02,19,56,8.20
2017,04,02,19,57,8.10